Time,TemperatureF,DewpointF,PressureIn,WindDirection,WindDirectionDegrees,WindSpeedMPH,WindSpeedGustMPH,Humidity,HourlyPrecipIn,Conditions,Clouds,dailyrainin,SoftwareType,DateUTC
2013-10-18 00:01:00,39.8,39.5,29.85,NNE,21,6.0,8.0,99,0.03,,---,0.00,VWS V14.01,2013-10-18 05:01:00,
2013-10-18 00:06:00,39.8,39.5,29.85,North,354,7.0,11.0,99,0.03,,---,0.00,VWS V14.01,2013-10-18 05:06:00,
2013-10-18 00:11:00,39.6,39.3,29.85,NE,37,2.0,5.0,99,0.03,,---,0.01,VWS V14.01,2013-10-18 05:11:00,
2013-10-18 00:16:00,39.6,39.3,29.85,NNE,13,3.0,8.0,99,0.03,,---,0.01,VWS V14.01,2013-10-18 05:16:00,
2013-10-18 00:21:00,39.5,39.2,29.85,NE,35,4.0,5.0,99,0.02,,---,0.01,VWS V14.01,2013-10-18 05:21:00,
2013-10-18 00:26:00,39.5,39.2,29.85,NNE,14,4.0,8.0,99,0.02,,---,0.01,VWS V14.01,2013-10-18 05:26:00,
2013-10-18 00:31:00,39.5,39.2,29.85,NNE,25,4.0,5.0,99,0.02,,---,0.01,VWS V14.01,2013-10-18 05:31:00,
2013-10-18 00:36:00,39.5,39.2,29.85,NE,40,2.0,11.0,99,0.02,,---,0.01,VWS V14.01,2013-10-18 05:36:00,
2013-10-18 00:41:00,39.5,39.0,29.85,North,11,3.0,5.0,98,0.01,,---,0.01,VWS V14.01,2013-10-18 05:41:00,
2013-10-18 00:46:00,39.5,39.0,29.85,ENE,58,5.0,10.0,98,0.01,,---,0.01,VWS V14.01,2013-10-18 05:46:00,
2013-10-18 00:51:00,39.5,39.0,29.85,NNE,20,2.0,5.0,98,0.02,,---,0.02,VWS V14.01,2013-10-18 05:51:00,
2013-10-18 00:56:00,39.5,39.2,29.85,NE,47,5.0,8.0,99,0.02,,---,0.02,VWS V14.01,2013-10-18 05:56:00,
2013-10-18 01:01:00,39.5,39.2,29.85,NE,34,2.0,5.0,99,0.02,,---,0.02,VWS V14.01,2013-10-18 06:01:00,
2013-10-18 01:06:00,39.5,39.2,29.85,NE,52,1.0,7.0,99,0.02,,---,0.02,VWS V14.01,2013-10-18 06:06:00,
2013-10-18 01:11:00,39.6,39.3,29.85,NNE,17,7.0,8.0,99,0.01,,---,0.02,VWS V14.01,2013-10-18 06:11:00,
2013-10-18 01:16:00,39.5,39.2,29.85,NE,51,8.0,8.0,99,0.02,,---,0.03,VWS V14.01,2013-10-18 06:16:00,
2013-10-18 01:21:00,39.5,39.2,29.85,NNE,32,8.0,8.0,99,0.02,,---,0.03,VWS V14.01,2013-10-18 06:21:00,
2013-10-18 01:26:00,39.5,39.2,29.85,NNE,31,4.0,8.0,99,0.02,,---,0.03,VWS V14.01,2013-10-18 06:26:00,
2013-10-18 01:31:00,39.5,39.2,29.86,NNE,31,9.0,9.0,99,0.02,,---,0.03,VWS V14.01,2013-10-18 06:31:00,
2013-10-18 01:36:00,39.3,38.8,29.86,NNE,16,3.0,9.0,98,0.02,,---,0.03,VWS V14.01,2013-10-18 06:36:00,
2013-10-18 01:41:00,39.2,38.7,29.86,NNE,28,2.0,6.0,98,0.02,,---,0.03,VWS V14.01,2013-10-18 06:41:00,
2013-10-18 01:46:00,39.1,38.6,29.86,NNE,24,2.0,6.0,98,0.02,,---,0.03,VWS V14.01,2013-10-18 06:46:00,
2013-10-18 01:51:00,38.9,38.4,29.86,NNE,25,5.0,9.0,98,0.01,,---,0.03,VWS V14.01,2013-10-18 06:51:00,
2013-10-18 01:56:00,38.9,38.4,29.86,NE,34,4.0,10.0,98,0.01,,---,0.03,VWS V14.01,2013-10-18 06:56:00,
2013-10-18 02:01:00,38.8,38.3,29.86,NNE,30,1.0,5.0,98,0.01,,---,0.03,VWS V14.01,2013-10-18 07:01:00,
2013-10-18 02:06:00,38.8,38.3,29.86,NE,37,5.0,7.0,98,0.01,,---,0.03,VWS V14.01,2013-10-18 07:06:00,
2013-10-18 02:11:00,38.8,38.3,29.86,NNE,14,0.0,3.0,98,0.01,,---,0.03,VWS V14.01,2013-10-18 07:11:00,
2013-10-18 02:16:00,38.8,38.3,29.86,NNE,27,2.0,6.0,98,0.01,,---,0.03,VWS V14.01,2013-10-18 07:16:00,
2013-10-18 02:21:00,38.8,38.3,29.86,NNE,28,1.0,6.0,98,0.00,,---,0.03,VWS V14.01,2013-10-18 07:21:00,
2013-10-18 02:26:00,38.8,38.3,29.86,North,3,6.0,6.0,98,0.00,,---,0.03,VWS V14.01,2013-10-18 07:26:00,
2013-10-18 02:31:00,38.8,38.3,29.86,North,7,3.0,3.0,98,0.00,,---,0.03,VWS V14.01,2013-10-18 07:31:00,
2013-10-18 02:36:00,38.6,38.1,29.86,NNE,14,2.0,6.0,98,0.00,,---,0.03,VWS V14.01,2013-10-18 07:36:00,
2013-10-18 02:41:00,38.6,38.1,29.86,North,7,3.0,3.0,98,0.00,,---,0.03,VWS V14.01,2013-10-18 07:41:00,
2013-10-18 02:46:00,38.6,38.1,29.86,NNE,24,2.0,7.0,98,0.00,,---,0.03,VWS V14.01,2013-10-18 07:46:00,
2013-10-18 02:51:00,38.6,38.1,29.86,North,356,2.0,3.0,98,0.00,,---,0.03,VWS V14.01,2013-10-18 07:51:00,
2013-10-18 02:56:00,38.6,38.1,29.86,North,11,4.0,6.0,98,0.00,,---,0.03,VWS V14.01,2013-10-18 07:56:00,
2013-10-18 03:01:00,38.6,38.1,29.86,North,0,7.0,7.0,98,0.00,,---,0.03,VWS V14.01,2013-10-18 08:01:00,
2013-10-18 03:06:00,38.5,38.0,29.86,North,1,2.0,7.0,98,0.00,,---,0.03,VWS V14.01,2013-10-18 08:06:00,
2013-10-18 03:11:00,38.3,37.5,29.86,NNE,14,2.0,5.0,97,0.00,,---,0.03,VWS V14.01,2013-10-18 08:11:00,
2013-10-18 03:16:00,38.2,37.4,29.86,NNE,16,3.0,8.0,97,0.00,,---,0.03,VWS V14.01,2013-10-18 08:16:00,
2013-10-18 03:21:00,38.0,37.2,29.86,North,8,4.0,4.0,97,0.00,,---,0.03,VWS V14.01,2013-10-18 08:21:00,
2013-10-18 03:26:00,38.0,37.2,29.86,North,353,3.0,8.0,97,0.00,,---,0.03,VWS V14.01,2013-10-18 08:26:00,
2013-10-18 03:31:00,37.9,37.1,29.86,NNE,27,2.0,3.0,97,0.00,,---,0.03,VWS V14.01,2013-10-18 08:31:00,
2013-10-18 03:36:00,37.9,37.1,29.86,North,10,2.0,7.0,97,0.00,,---,0.03,VWS V14.01,2013-10-18 08:36:00,
2013-10-18 03:41:00,37.9,37.1,29.86,NE,37,2.0,3.0,97,0.00,,---,0.03,VWS V14.01,2013-10-18 08:41:00,
2013-10-18 03:45:00,37.9,37.4,29.86,NNE,16,2.0,6.0,98,0.00,,---,0.03,VWS V14.01,2013-10-18 08:45:00,
2013-10-18 03:50:00,37.9,37.4,29.86,North,1,3.0,5.0,98,0.00,,---,0.03,VWS V14.01,2013-10-18 08:50:00,
2013-10-18 03:55:00,38.0,37.5,29.86,NNE,16,4.0,8.0,98,0.00,,---,0.03,VWS V14.01,2013-10-18 08:55:00,
2013-10-18 04:00:00,38.2,37.4,29.87,North,6,1.0,2.0,97,0.00,,---,0.03,VWS V14.01,2013-10-18 09:00:00,
2013-10-18 04:05:00,38.2,37.4,29.87,NNE,16,1.0,7.0,97,0.00,,---,0.03,VWS V14.01,2013-10-18 09:05:00,
2013-10-18 04:10:00,38.2,37.4,29.87,NE,40,3.0,4.0,97,0.00,,---,0.03,VWS V14.01,2013-10-18 09:10:00,
2013-10-18 04:15:00,38.2,37.4,29.87,North,4,3.0,5.0,97,0.00,,---,0.03,VWS V14.01,2013-10-18 09:15:00,
2013-10-18 04:20:00,38.3,37.5,29.87,NNE,18,3.0,5.0,97,0.00,,---,0.03,VWS V14.01,2013-10-18 09:20:00,
2013-10-18 04:25:00,38.3,37.5,29.87,NNE,14,1.0,7.0,97,0.00,,---,0.03,VWS V14.01,2013-10-18 09:25:00,
2013-10-18 04:30:00,38.3,37.3,29.87,NNE,24,5.0,5.0,96,0.00,,---,0.03,VWS V14.01,2013-10-18 09:30:00,
2013-10-18 04:35:00,38.3,37.3,29.87,North,1,3.0,8.0,96,0.00,,---,0.03,VWS V14.01,2013-10-18 09:35:00,
2013-10-18 04:40:00,38.3,37.3,29.87,North,7,2.0,2.0,96,0.00,,---,0.03,VWS V14.01,2013-10-18 09:40:00,
2013-10-18 04:45:00,38.3,37.0,29.87,NNE,17,2.0,5.0,95,0.00,,---,0.03,VWS V14.01,2013-10-18 09:45:00,
2013-10-18 04:50:00,38.3,37.0,29.87,North,0,6.0,6.0,95,0.00,,---,0.03,VWS V14.01,2013-10-18 09:50:00,
2013-10-18 04:55:00,38.3,37.0,29.87,North,7,2.0,7.0,95,0.00,,---,0.03,VWS V14.01,2013-10-18 09:55:00,
2013-10-18 05:00:00,38.3,36.7,29.88,North,356,6.0,6.0,94,0.00,,---,0.03,VWS V14.01,2013-10-18 10:00:00,
2013-10-18 05:05:00,38.3,36.7,29.88,North,7,5.0,7.0,94,0.00,,---,0.03,VWS V14.01,2013-10-18 10:05:00,
2013-10-18 05:10:00,38.3,36.7,29.88,NNE,14,2.0,2.0,94,0.00,,---,0.03,VWS V14.01,2013-10-18 10:10:00,
2013-10-18 05:15:00,38.3,36.5,29.88,North,4,1.0,7.0,93,0.00,,---,0.03,VWS V14.01,2013-10-18 10:15:00,
2013-10-18 05:20:00,38.3,36.5,29.88,NNE,23,2.0,2.0,93,0.00,,---,0.03,VWS V14.01,2013-10-18 10:20:00,
2013-10-18 05:25:00,38.3,36.5,29.88,North,0,2.0,8.0,93,0.00,,---,0.03,VWS V14.01,2013-10-18 10:25:00,
2013-10-18 05:30:00,38.3,36.2,29.88,North,6,4.0,4.0,92,0.00,,---,0.03,VWS V14.01,2013-10-18 10:30:00,
2013-10-18 05:35:00,38.2,36.1,29.88,NNE,16,3.0,8.0,92,0.00,,---,0.03,VWS V14.01,2013-10-18 10:35:00,
2013-10-18 05:40:00,38.2,36.1,29.88,North,4,2.0,3.0,92,0.00,,---,0.03,VWS V14.01,2013-10-18 10:40:00,
2013-10-18 05:45:00,38.0,35.9,29.89,North,7,4.0,6.0,92,0.00,,---,0.03,VWS V14.01,2013-10-18 10:45:00,
2013-10-18 05:50:00,38.2,36.1,29.89,North,10,3.0,3.0,92,0.00,,---,0.03,VWS V14.01,2013-10-18 10:50:00,
2013-10-18 05:55:00,38.2,36.1,29.89,North,3,2.0,7.0,92,0.00,,---,0.03,VWS V14.01,2013-10-18 10:55:00,
2013-10-18 06:00:00,38.0,35.9,29.90,NNE,13,0.0,2.0,92,0.00,,---,0.03,VWS V14.01,2013-10-18 11:00:00,
2013-10-18 06:05:00,37.9,35.8,29.90,North,0,4.0,7.0,92,0.00,,---,0.03,VWS V14.01,2013-10-18 11:05:00,
2013-10-18 06:10:00,37.8,35.7,29.90,North,6,0.0,1.0,92,0.00,,---,0.03,VWS V14.01,2013-10-18 11:10:00,
2013-10-18 06:15:00,37.6,35.2,29.90,North,0,5.0,7.0,91,0.00,,---,0.03,VWS V14.01,2013-10-18 11:15:00,
2013-10-18 06:20:00,37.5,35.1,29.90,North,0,2.0,2.0,91,0.00,,---,0.03,VWS V14.01,2013-10-18 11:20:00,
2013-10-18 06:25:00,37.3,34.9,29.90,North,0,1.0,8.0,91,0.00,,---,0.03,VWS V14.01,2013-10-18 11:25:00,
2013-10-18 06:30:00,37.0,34.6,29.90,North,7,2.0,3.0,91,0.00,,---,0.03,VWS V14.01,2013-10-18 11:30:00,
2013-10-18 06:35:00,36.9,34.5,29.90,NNE,17,5.0,8.0,91,0.00,,---,0.03,VWS V14.01,2013-10-18 11:35:00,
2013-10-18 06:40:00,36.8,34.4,29.90,North,356,5.0,8.0,91,0.00,,---,0.03,VWS V14.01,2013-10-18 11:40:00,
2013-10-18 06:45:00,36.6,34.0,29.91,North,1,7.0,8.0,90,0.00,,---,0.03,VWS V14.01,2013-10-18 11:45:00,
2013-10-18 06:50:00,36.5,33.8,29.91,North,352,5.0,8.0,90,0.00,,---,0.03,VWS V14.01,2013-10-18 11:50:00,
2013-10-18 06:55:00,36.3,33.7,29.91,North,0,5.0,8.0,90,0.00,,---,0.03,VWS V14.01,2013-10-18 11:55:00,
2013-10-18 07:00:00,36.2,33.6,29.92,NNE,28,4.0,4.0,90,0.00,,---,0.03,VWS V14.01,2013-10-18 12:00:00,
2013-10-18 07:05:00,35.9,33.3,29.92,NNE,16,2.0,8.0,90,0.00,,---,0.03,VWS V14.01,2013-10-18 12:05:00,
2013-10-18 07:10:00,35.8,33.2,29.92,NNE,17,5.0,5.0,90,0.00,,---,0.03,VWS V14.01,2013-10-18 12:10:00,
2013-10-18 07:15:00,35.6,33.0,29.92,NW,322,5.0,6.0,90,0.00,,---,0.03,VWS V14.01,2013-10-18 12:15:00,
2013-10-18 07:20:00,35.5,32.9,29.92,North,1,0.0,1.0,90,0.00,,---,0.03,VWS V14.01,2013-10-18 12:20:00,
2013-10-18 07:25:00,35.5,32.9,29.92,North,4,2.0,7.0,90,0.00,,---,0.03,VWS V14.01,2013-10-18 12:25:00,
2013-10-18 07:30:00,35.3,32.7,29.92,North,0,5.0,5.0,90,0.00,,---,0.03,VWS V14.01,2013-10-18 12:30:00,
2013-10-18 07:35:00,35.3,32.7,29.92,North,354,2.0,7.0,90,0.00,,---,0.03,VWS V14.01,2013-10-18 12:35:00,
2013-10-18 07:40:00,35.2,32.6,29.92,NNE,25,3.0,6.0,90,0.00,,---,0.03,VWS V14.01,2013-10-18 12:40:00,
2013-10-18 07:45:00,35.0,32.4,29.93,NNE,20,5.0,6.0,90,0.00,,---,0.03,VWS V14.01,2013-10-18 12:45:00,
2013-10-18 07:50:00,35.0,32.4,29.93,NNE,14,3.0,8.0,90,0.00,,---,0.03,VWS V14.01,2013-10-18 12:50:00,
2013-10-18 07:55:00,35.0,32.4,29.93,North,0,1.0,7.0,90,0.00,,---,0.03,VWS V14.01,2013-10-18 12:55:00,
2013-10-18 08:00:00,35.2,32.6,29.93,NNE,25,2.0,7.0,90,0.00,,---,0.03,VWS V14.01,2013-10-18 13:00:00,
2013-10-18 08:05:00,35.2,32.6,29.93,North,7,4.0,7.0,90,0.00,,---,0.03,VWS V14.01,2013-10-18 13:05:00,
2013-10-18 08:10:00,35.5,32.9,29.93,North,11,1.0,7.0,90,0.00,,---,0.03,VWS V14.01,2013-10-18 13:10:00,
2013-10-18 08:15:00,35.8,32.9,29.94,North,8,1.0,4.0,89,0.00,,---,0.03,VWS V14.01,2013-10-18 13:15:00,
2013-10-18 08:20:00,35.9,33.0,29.94,NNE,24,4.0,6.0,89,0.00,,---,0.03,VWS V14.01,2013-10-18 13:20:00,
2013-10-18 08:25:00,36.2,33.0,29.94,NNE,23,3.0,5.0,88,0.00,,---,0.03,VWS V14.01,2013-10-18 13:25:00,
2013-10-18 08:30:00,36.5,33.3,29.94,North,8,1.0,6.0,88,0.00,,---,0.03,VWS V14.01,2013-10-18 13:30:00,
2013-10-18 08:35:00,36.5,33.0,29.94,North,0,0.0,7.0,87,0.00,,---,0.03,VWS V14.01,2013-10-18 13:35:00,
2013-10-18 08:40:00,36.5,32.7,29.94,NNW,342,2.0,7.0,86,0.00,,---,0.03,VWS V14.01,2013-10-18 13:40:00,
2013-10-18 08:45:00,36.5,33.0,29.94,North,0,2.0,7.0,87,0.00,,---,0.03,VWS V14.01,2013-10-18 13:45:00,
2013-10-18 08:50:00,36.8,33.3,29.94,North,352,0.0,7.0,87,0.00,,---,0.03,VWS V14.01,2013-10-18 13:50:00,
2013-10-18 08:55:00,37.0,33.5,29.94,North,3,0.0,5.0,87,0.00,,---,0.03,VWS V14.01,2013-10-18 13:55:00,
2013-10-18 09:00:00,37.5,34.3,29.95,NNE,28,2.0,5.0,88,0.00,,---,0.03,VWS V14.01,2013-10-18 14:00:00,
2013-10-18 09:05:00,37.3,33.8,29.95,North,359,1.0,3.0,87,0.00,,---,0.03,VWS V14.01,2013-10-18 14:05:00,
2013-10-18 09:10:00,37.2,33.7,29.95,NNW,344,0.0,5.0,87,0.00,,---,0.03,VWS V14.01,2013-10-18 14:10:00,
2013-10-18 09:15:00,37.3,33.8,29.95,NW,305,0.0,3.0,87,0.00,,---,0.03,VWS V14.01,2013-10-18 14:15:00,
2013-10-18 09:20:00,37.3,33.8,29.95,North,8,0.0,5.0,87,0.00,,---,0.03,VWS V14.01,2013-10-18 14:20:00,
2013-10-18 09:25:00,37.8,34.3,29.95,North,353,0.0,6.0,87,0.00,,---,0.03,VWS V14.01,2013-10-18 14:25:00,
2013-10-18 09:30:00,38.3,34.5,29.95,NNW,344,0.0,6.0,86,0.00,,---,0.03,VWS V14.01,2013-10-18 14:30:00,
2013-10-18 09:35:00,38.9,35.1,29.95,NNW,347,0.0,2.0,86,0.00,,---,0.03,VWS V14.01,2013-10-18 14:35:00,
2013-10-18 09:40:00,39.6,35.2,29.95,NW,325,1.0,10.0,84,0.00,,---,0.03,VWS V14.01,2013-10-18 14:40:00,
2013-10-18 09:45:00,39.8,35.1,29.95,North,0,1.0,6.0,83,0.00,,---,0.03,VWS V14.01,2013-10-18 14:45:00,
2013-10-18 09:50:00,40.2,35.2,29.95,North,352,4.0,6.0,82,0.00,,---,0.03,VWS V14.01,2013-10-18 14:50:00,
2013-10-18 09:55:00,40.5,35.1,29.95,North,0,1.0,6.0,81,0.00,,---,0.03,VWS V14.01,2013-10-18 14:55:00,
2013-10-18 10:00:00,40.8,35.1,29.94,North,350,3.0,6.0,80,0.00,,---,0.03,VWS V14.01,2013-10-18 15:00:00,
2013-10-18 10:05:00,41.1,35.1,29.94,North,0,2.0,6.0,79,0.00,,---,0.03,VWS V14.01,2013-10-18 15:05:00,
2013-10-18 10:10:00,41.5,35.8,29.94,North,0,2.0,6.0,80,0.00,,---,0.03,VWS V14.01,2013-10-18 15:10:00,
2013-10-18 10:15:00,41.6,35.6,29.94,North,0,4.0,7.0,79,0.00,,---,0.03,VWS V14.01,2013-10-18 15:15:00,
2013-10-18 10:20:00,42.1,35.8,29.94,North,356,5.0,7.0,78,0.00,,---,0.03,VWS V14.01,2013-10-18 15:20:00,
2013-10-18 10:25:00,42.3,35.9,29.94,North,352,1.0,6.0,78,0.00,,---,0.03,VWS V14.01,2013-10-18 15:25:00,
2013-10-18 10:30:00,42.9,35.9,29.94,North,0,2.0,6.0,76,0.00,,---,0.03,VWS V14.01,2013-10-18 15:30:00,
2013-10-18 10:35:00,43.3,36.3,29.94,NNW,335,0.0,6.0,76,0.00,,---,0.03,VWS V14.01,2013-10-18 15:35:00,
2013-10-18 10:40:00,43.8,36.4,29.94,NNW,337,0.0,6.0,75,0.00,,---,0.03,VWS V14.01,2013-10-18 15:40:00,
2013-10-18 10:45:00,44.3,35.9,29.94,NNW,337,0.0,3.0,72,0.00,,---,0.03,VWS V14.01,2013-10-18 15:45:00,
2013-10-18 10:50:00,44.6,35.4,29.94,NW,325,0.0,5.0,70,0.00,,---,0.03,VWS V14.01,2013-10-18 15:50:00,
2013-10-18 10:55:00,44.6,35.4,29.94,NNW,343,1.0,4.0,70,0.00,,---,0.03,VWS V14.01,2013-10-18 15:55:00,
2013-10-18 11:00:00,45.1,35.5,29.94,North,0,1.0,5.0,69,0.00,,---,0.03,VWS V14.01,2013-10-18 16:00:00,
2013-10-18 11:05:00,45.2,34.9,29.94,North,0,1.0,6.0,67,0.00,,---,0.03,VWS V14.01,2013-10-18 16:05:00,
2013-10-18 11:10:00,45.5,35.2,29.94,North,356,3.0,7.0,67,0.00,,---,0.03,VWS V14.01,2013-10-18 16:10:00,
2013-10-18 11:15:00,46.0,36.4,29.93,NNW,330,0.0,5.0,69,0.00,,---,0.03,VWS V14.01,2013-10-18 16:15:00,
2013-10-18 11:19:00,46.2,35.9,29.93,WNW,292,3.0,6.0,67,0.00,,---,0.03,VWS V14.01,2013-10-18 16:19:00,
2013-10-18 11:24:00,46.4,34.1,29.93,North,353,5.0,7.0,62,0.00,,---,0.03,VWS V14.01,2013-10-18 16:24:00,
2013-10-18 11:29:00,46.8,34.9,29.94,North,4,2.0,7.0,63,0.00,,---,0.03,VWS V14.01,2013-10-18 16:29:00,
2013-10-18 11:34:00,47.3,35.8,29.94,NW,305,2.0,4.0,64,0.00,,---,0.03,VWS V14.01,2013-10-18 16:34:00,
2013-10-18 11:39:00,47.9,35.1,29.94,NNW,328,3.0,5.0,61,0.00,,---,0.03,VWS V14.01,2013-10-18 16:39:00,
2013-10-18 11:45:00,48.2,34.1,29.93,WNW,298,5.0,6.0,58,0.00,,---,0.03,VWS V14.01,2013-10-18 16:45:00,
2013-10-18 11:49:00,48.5,36.1,29.93,WNW,299,5.0,6.0,62,0.00,,---,0.03,VWS V14.01,2013-10-18 16:49:00,
2013-10-18 11:54:00,48.6,34.5,29.93,NW,315,6.0,6.0,58,0.00,,---,0.03,VWS V14.01,2013-10-18 16:54:00,
2013-10-18 11:59:00,48.6,33.6,29.92,NNW,329,0.0,6.0,56,0.00,,---,0.03,VWS V14.01,2013-10-18 16:59:00,
2013-10-18 12:04:00,48.5,33.1,29.92,North,349,1.0,8.0,55,0.01,,---,0.04,VWS V14.01,2013-10-18 17:04:00,
2013-10-18 12:09:00,48.9,32.1,29.92,North,3,2.0,8.0,52,0.01,,---,0.04,VWS V14.01,2013-10-18 17:09:00,
2013-10-18 12:14:00,49.1,32.2,29.92,NNW,333,7.0,7.0,52,0.01,,---,0.04,VWS V14.01,2013-10-18 17:14:00,
2013-10-18 12:19:00,48.8,32.9,29.92,NNW,347,0.0,7.0,54,0.01,,---,0.04,VWS V14.01,2013-10-18 17:19:00,
2013-10-18 12:24:00,49.1,32.2,29.92,North,349,3.0,8.0,52,0.01,,---,0.04,VWS V14.01,2013-10-18 17:24:00,
2013-10-18 12:29:00,49.5,33.6,29.92,NW,316,6.0,8.0,54,0.01,,---,0.04,VWS V14.01,2013-10-18 17:29:00,
2013-10-18 12:34:00,49.8,33.4,29.92,WNW,302,4.0,8.0,53,0.01,,---,0.04,VWS V14.01,2013-10-18 17:34:00,
2013-10-18 12:35:00,49.8,33.4,29.92,NW,318,6.0,8.0,53,0.01,,---,0.04,VWS V14.01,2013-10-18 17:35:00,
2013-10-18 12:40:00,49.5,33.1,29.92,NW,326,3.0,8.0,53,0.01,,---,0.04,VWS V14.01,2013-10-18 17:40:00,
2013-10-18 12:45:00,49.8,34.3,29.91,WNW,289,5.0,7.0,55,0.01,,---,0.04,VWS V14.01,2013-10-18 17:45:00,
2013-10-18 12:50:00,49.9,33.0,29.91,NW,323,2.0,7.0,52,0.01,,---,0.04,VWS V14.01,2013-10-18 17:50:00,
2013-10-18 12:55:00,50.1,33.7,29.91,North,357,5.0,12.0,53,0.01,,---,0.04,VWS V14.01,2013-10-18 17:55:00,
2013-10-18 13:00:00,49.9,32.5,29.90,NW,322,2.0,12.0,51,0.01,,---,0.04,VWS V14.01,2013-10-18 18:00:00,
2013-10-18 13:05:00,50.1,33.2,29.90,WNW,282,2.0,11.0,52,0.01,,---,0.04,VWS V14.01,2013-10-18 18:05:00,
2013-10-18 13:10:00,49.5,33.6,29.90,NW,315,1.0,11.0,54,0.01,,---,0.04,VWS V14.01,2013-10-18 18:10:00,
2013-10-18 13:15:00,49.8,33.8,29.90,North,0,1.0,10.0,54,0.00,,---,0.04,VWS V14.01,2013-10-18 18:15:00,
2013-10-18 13:20:00,50.2,34.7,29.90,North,353,7.0,10.0,55,0.00,,---,0.04,VWS V14.01,2013-10-18 18:20:00,
2013-10-18 13:25:00,50.4,34.4,29.90,North,357,2.0,8.0,54,0.00,,---,0.04,VWS V14.01,2013-10-18 18:25:00,
2013-10-18 13:30:00,51.0,35.0,29.89,NW,316,4.0,9.0,54,0.00,,---,0.04,VWS V14.01,2013-10-18 18:30:00,
2013-10-18 13:35:00,51.4,34.9,29.89,WNW,294,1.0,7.0,53,0.00,,---,0.04,VWS V14.01,2013-10-18 18:35:00,
2013-10-18 13:39:00,50.7,34.2,29.89,NNW,333,2.0,7.0,53,0.00,,---,0.04,VWS V14.01,2013-10-18 18:39:00,
2013-10-18 13:44:00,49.5,31.1,29.89,North,356,7.0,10.0,49,0.00,,---,0.04,VWS V14.01,2013-10-18 18:44:00,
2013-10-18 13:49:00,49.4,33.0,29.89,North,356,4.0,10.0,53,0.00,,---,0.04,VWS V14.01,2013-10-18 18:49:00,
2013-10-18 13:54:00,50.2,33.3,29.89,NW,313,2.0,8.0,52,0.00,,---,0.04,VWS V14.01,2013-10-18 18:54:00,
2013-10-18 13:59:00,49.9,33.0,29.88,NW,305,5.0,8.0,52,0.00,,---,0.04,VWS V14.01,2013-10-18 18:59:00,
2013-10-18 14:04:00,49.8,32.9,29.88,NW,319,2.0,5.0,52,0.00,,---,0.04,VWS V14.01,2013-10-18 19:04:00,
2013-10-18 14:09:00,49.9,32.5,29.88,WNW,284,3.0,7.0,51,0.00,,---,0.04,VWS V14.01,2013-10-18 19:09:00,
2013-10-18 14:14:00,50.8,30.2,29.87,North,352,7.0,8.0,45,0.00,,---,0.04,VWS V14.01,2013-10-18 19:14:00,
2013-10-18 14:19:00,51.6,30.4,29.87,North,359,8.0,13.0,44,0.00,,---,0.04,VWS V14.01,2013-10-18 19:19:00,
2013-10-18 14:24:00,51.7,31.1,29.87,NNE,28,0.0,10.0,45,0.00,,---,0.04,VWS V14.01,2013-10-18 19:24:00,
2013-10-18 14:29:00,52.0,31.3,29.86,NNW,332,2.0,10.0,45,0.00,,---,0.04,VWS V14.01,2013-10-18 19:29:00,
2013-10-18 14:34:00,50.7,31.2,29.86,NNW,332,7.0,10.0,47,0.00,,---,0.04,VWS V14.01,2013-10-18 19:34:00,
2013-10-18 14:39:00,50.1,30.1,29.86,NE,37,1.0,10.0,46,0.00,,---,0.04,VWS V14.01,2013-10-18 19:39:00,
2013-10-18 14:44:00,50.7,30.1,29.85,North,353,5.0,9.0,45,0.00,,---,0.04,VWS V14.01,2013-10-18 19:44:00,
2013-10-18 14:49:00,51.3,32.3,29.85,North,7,0.0,11.0,48,0.00,,---,0.04,VWS V14.01,2013-10-18 19:49:00,
2013-10-18 14:54:00,51.7,31.1,29.85,North,0,0.0,11.0,45,0.00,,---,0.04,VWS V14.01,2013-10-18 19:54:00,
2013-10-18 14:59:00,51.1,29.4,29.85,NNW,340,5.0,11.0,43,0.00,,---,0.04,VWS V14.01,2013-10-18 19:59:00,
2013-10-18 15:04:00,51.4,32.4,29.85,NNE,31,1.0,7.0,48,0.00,,---,0.04,VWS V14.01,2013-10-18 20:04:00,
2013-10-18 15:09:00,52.3,32.2,29.85,NNW,335,1.0,7.0,46,0.00,,---,0.04,VWS V14.01,2013-10-18 20:09:00,
2013-10-18 15:14:00,52.2,32.1,29.85,NNW,329,6.0,8.0,46,0.00,,---,0.04,VWS V14.01,2013-10-18 20:14:00,
2013-10-18 15:19:00,51.9,31.8,29.85,North,8,2.0,8.0,46,0.00,,---,0.04,VWS V14.01,2013-10-18 20:19:00,
2013-10-18 15:24:00,51.6,31.0,29.85,North,4,1.0,7.0,45,0.00,,---,0.04,VWS V14.01,2013-10-18 20:24:00,
2013-10-18 15:29:00,51.7,31.6,29.85,NW,323,0.0,7.0,46,0.00,,---,0.04,VWS V14.01,2013-10-18 20:29:00,
2013-10-18 15:34:00,51.4,30.2,29.85,North,0,1.0,7.0,44,0.00,,---,0.04,VWS V14.01,2013-10-18 20:34:00,
2013-10-18 15:39:00,50.4,32.0,29.85,North,0,0.0,7.0,49,0.00,,---,0.04,VWS V14.01,2013-10-18 20:39:00,
2013-10-18 15:44:00,49.5,30.6,29.86,NW,319,0.0,5.0,48,0.00,,---,0.04,VWS V14.01,2013-10-18 20:44:00,
2013-10-18 15:49:00,48.8,32.0,29.86,North,350,1.0,7.0,52,0.00,,---,0.04,VWS V14.01,2013-10-18 20:49:00,
2013-10-18 15:54:00,48.5,31.7,29.86,North,0,0.0,2.0,52,0.00,,---,0.04,VWS V14.01,2013-10-18 20:54:00,
2013-10-18 15:59:00,48.3,31.0,29.86,North,352,1.0,4.0,51,0.00,,---,0.04,VWS V14.01,2013-10-18 20:59:00,
2013-10-18 16:04:00,48.2,31.4,29.86,North,0,2.0,6.0,52,0.00,,---,0.04,VWS V14.01,2013-10-18 21:04:00,
2013-10-18 16:09:00,48.2,31.9,29.86,North,0,0.0,6.0,53,0.00,,---,0.04,VWS V14.01,2013-10-18 21:09:00,
2013-10-18 16:14:00,48.3,31.5,29.86,North,1,2.0,3.0,52,0.00,,---,0.04,VWS V14.01,2013-10-18 21:14:00,
2013-10-18 16:19:00,48.5,32.2,29.86,WNW,302,0.0,11.0,53,0.00,,---,0.04,VWS V14.01,2013-10-18 21:19:00,
2013-10-18 16:24:00,48.6,31.3,29.86,WNW,299,4.0,8.0,51,0.00,,---,0.04,VWS V14.01,2013-10-18 21:24:00,
2013-10-18 16:29:00,48.8,32.0,29.86,NW,305,0.0,8.0,52,0.00,,---,0.04,VWS V14.01,2013-10-18 21:29:00,
2013-10-18 16:34:00,48.6,31.8,29.86,NW,322,1.0,6.0,52,0.00,,---,0.04,VWS V14.01,2013-10-18 21:34:00,
2013-10-18 16:39:00,48.5,32.2,29.86,WNW,291,6.0,6.0,53,0.00,,---,0.04,VWS V14.01,2013-10-18 21:39:00,
2013-10-18 16:44:00,48.5,32.6,29.86,WNW,284,1.0,7.0,54,0.00,,---,0.04,VWS V14.01,2013-10-18 21:44:00,
2013-10-18 16:49:00,48.5,33.1,29.86,WNW,295,0.0,7.0,55,0.00,,---,0.04,VWS V14.01,2013-10-18 21:49:00,
2013-10-18 16:54:00,48.3,32.0,29.86,NW,306,0.0,3.0,53,0.00,,---,0.04,VWS V14.01,2013-10-18 21:54:00,
2013-10-18 16:59:00,48.3,32.4,29.86,West,281,0.0,5.0,54,0.00,,---,0.04,VWS V14.01,2013-10-18 21:59:00,
2013-10-18 17:04:00,48.2,32.8,29.85,West,275,0.0,3.0,55,0.00,,---,0.04,VWS V14.01,2013-10-18 22:04:00,
2013-10-18 17:09:00,47.9,32.1,29.85,NNW,328,0.0,5.0,54,0.00,,---,0.04,VWS V14.01,2013-10-18 22:09:00,
2013-10-18 17:14:00,47.7,31.9,29.85,WNW,282,2.0,6.0,54,0.00,,---,0.04,VWS V14.01,2013-10-18 22:14:00,
2013-10-18 17:19:00,47.6,31.3,29.84,NW,320,1.0,6.0,53,0.00,,---,0.04,VWS V14.01,2013-10-18 22:19:00,
2013-10-18 17:24:00,47.4,32.5,29.84,WNW,287,2.0,5.0,56,0.00,,---,0.04,VWS V14.01,2013-10-18 22:24:00,
2013-10-18 17:29:00,47.3,32.8,29.84,WNW,289,0.0,5.0,57,0.00,,---,0.04,VWS V14.01,2013-10-18 22:29:00,
2013-10-18 17:34:00,47.1,33.1,29.84,WNW,295,1.0,3.0,58,0.00,,---,0.04,VWS V14.01,2013-10-18 22:34:00,
2013-10-18 17:39:00,46.8,33.2,29.84,WNW,296,1.0,3.0,59,0.00,,---,0.04,VWS V14.01,2013-10-18 22:39:00,
2013-10-18 17:44:00,46.7,33.2,29.84,West,281,1.0,4.0,59,0.00,,---,0.04,VWS V14.01,2013-10-18 22:44:00,
2013-10-18 17:49:00,46.5,32.5,29.84,West,275,2.0,5.0,58,0.00,,---,0.04,VWS V14.01,2013-10-18 22:49:00,
2013-10-18 17:54:00,46.2,33.9,29.84,West,277,0.0,1.0,62,0.00,,---,0.04,VWS V14.01,2013-10-18 22:54:00,
2013-10-18 17:59:00,46.0,34.5,29.84,West,278,0.0,1.0,64,0.00,,---,0.04,VWS V14.01,2013-10-18 22:59:00,
2013-10-18 18:04:00,45.5,34.8,29.84,West,278,0.0,1.0,66,0.00,,---,0.04,VWS V14.01,2013-10-18 23:04:00,
2013-10-18 18:09:00,45.2,34.9,29.84,West,278,0.0,1.0,67,0.00,,---,0.04,VWS V14.01,2013-10-18 23:09:00,
2013-10-18 18:14:00,44.9,34.6,29.84,West,278,0.0,0.0,67,0.00,,---,0.04,VWS V14.01,2013-10-18 23:14:00,
2013-10-18 18:19:00,44.8,34.9,29.84,West,278,0.0,0.0,68,0.00,,---,0.04,VWS V14.01,2013-10-18 23:19:00,
2013-10-18 18:24:00,44.6,34.0,29.84,West,280,0.0,1.0,66,0.00,,---,0.04,VWS V14.01,2013-10-18 23:24:00,
2013-10-18 18:29:00,44.6,34.7,29.84,West,281,1.0,1.0,68,0.00,,---,0.04,VWS V14.01,2013-10-18 23:29:00,
2013-10-18 18:34:00,44.6,34.7,29.84,WNW,285,0.0,3.0,68,0.00,,---,0.04,VWS V14.01,2013-10-18 23:34:00,
2013-10-18 18:39:00,44.6,33.6,29.84,WNW,287,0.0,3.0,65,0.00,,---,0.04,VWS V14.01,2013-10-18 23:39:00,
2013-10-18 18:44:00,44.8,33.8,29.84,WNW,287,0.0,1.0,65,0.00,,---,0.04,VWS V14.01,2013-10-18 23:44:00,
2013-10-18 18:49:00,44.8,34.5,29.85,WNW,291,2.0,2.0,67,0.00,,---,0.04,VWS V14.01,2013-10-18 23:49:00,
2013-10-18 18:54:00,44.6,34.0,29.85,NNE,21,2.0,5.0,66,0.00,,---,0.04,VWS V14.01,2013-10-18 23:54:00,
2013-10-18 18:59:00,44.5,34.2,29.85,NNE,21,0.0,5.0,67,0.00,,---,0.04,VWS V14.01,2013-10-18 23:59:00,
2013-10-18 19:04:00,44.3,34.0,29.85,NNE,21,0.0,0.0,67,0.00,,---,0.04,VWS V14.01,2013-10-19 00:04:00,
2013-10-18 19:09:00,44.2,34.3,29.85,NNE,21,0.0,0.0,68,0.00,,---,0.04,VWS V14.01,2013-10-19 00:09:00,
2013-10-18 19:14:00,44.1,34.6,29.85,NNE,21,0.0,0.0,69,0.00,,---,0.04,VWS V14.01,2013-10-19 00:14:00,
2013-10-18 19:19:00,43.8,34.7,29.85,NNE,21,1.0,1.0,70,0.00,,---,0.04,VWS V14.01,2013-10-19 00:19:00,
2013-10-18 19:24:00,43.6,34.1,29.85,WNW,299,1.0,3.0,69,0.00,,---,0.04,VWS V14.01,2013-10-19 00:24:00,
2013-10-18 19:29:00,43.6,33.8,29.85,NW,304,5.0,7.0,68,0.00,,---,0.04,VWS V14.01,2013-10-19 00:29:00,
2013-10-18 19:34:00,43.8,33.9,29.85,WNW,292,0.0,5.0,68,0.00,,---,0.04,VWS V14.01,2013-10-19 00:34:00,
2013-10-18 19:39:00,43.8,34.3,29.85,WNW,292,0.0,5.0,69,0.00,,---,0.04,VWS V14.01,2013-10-19 00:39:00,
2013-10-18 19:44:00,43.8,34.7,29.85,WNW,294,0.0,0.0,70,0.00,,---,0.04,VWS V14.01,2013-10-19 00:44:00,
2013-10-18 19:49:00,43.6,34.5,29.85,WNW,299,0.0,0.0,70,0.00,,---,0.04,VWS V14.01,2013-10-19 00:49:00,
2013-10-18 19:54:00,43.5,34.7,29.85,WNW,295,0.0,0.0,71,0.00,,---,0.04,VWS V14.01,2013-10-19 00:54:00,
2013-10-18 19:59:00,43.2,34.8,29.85,WNW,299,0.0,1.0,72,0.00,,---,0.04,VWS V14.01,2013-10-19 00:59:00,
2013-10-18 20:04:00,42.9,34.8,29.84,WNW,296,0.0,0.0,73,0.00,,---,0.04,VWS V14.01,2013-10-19 01:04:00,
2013-10-18 20:09:00,42.6,34.6,29.84,WNW,296,0.0,0.0,73,0.00,,---,0.04,VWS V14.01,2013-10-19 01:09:00,
2013-10-18 20:14:00,42.5,34.8,29.84,WNW,296,0.0,0.0,74,0.00,,---,0.04,VWS V14.01,2013-10-19 01:14:00,
2013-10-18 20:19:00,42.2,34.9,29.83,WNW,296,0.0,0.0,75,0.00,,---,0.04,VWS V14.01,2013-10-19 01:19:00,
2013-10-18 20:24:00,41.9,35.2,29.83,WNW,296,0.0,0.0,77,0.00,,---,0.04,VWS V14.01,2013-10-19 01:24:00,
2013-10-18 20:29:00,41.6,35.3,29.83,WNW,296,0.0,0.0,78,0.00,,---,0.04,VWS V14.01,2013-10-19 01:29:00,
2013-10-18 20:33:00,41.5,35.2,29.83,WNW,296,0.0,0.0,78,0.00,,---,0.04,VWS V14.01,2013-10-19 01:33:00,
2013-10-18 20:38:00,41.2,35.2,29.83,WNW,296,0.0,0.0,79,0.00,,---,0.04,VWS V14.01,2013-10-19 01:38:00,
2013-10-18 20:43:00,41.1,35.1,29.83,WNW,296,0.0,0.0,79,0.00,,---,0.04,VWS V14.01,2013-10-19 01:43:00,
2013-10-18 20:48:00,40.9,35.2,29.83,WNW,301,0.0,1.0,80,0.00,,---,0.04,VWS V14.01,2013-10-19 01:48:00,
2013-10-18 20:53:00,41.1,35.1,29.83,North,354,0.0,4.0,79,0.00,,---,0.04,VWS V14.01,2013-10-19 01:53:00,
2013-10-18 20:58:00,41.2,34.5,29.83,North,0,0.0,4.0,77,0.00,,---,0.04,VWS V14.01,2013-10-19 01:58:00,
2013-10-18 21:03:00,41.3,34.3,29.83,North,0,0.0,1.0,76,0.00,,---,0.04,VWS V14.01,2013-10-19 02:03:00,
2013-10-18 21:08:00,41.3,34.7,29.83,North,0,1.0,1.0,77,0.00,,---,0.04,VWS V14.01,2013-10-19 02:08:00,
2013-10-18 21:13:00,41.3,34.7,29.83,North,359,0.0,1.0,77,0.00,,---,0.04,VWS V14.01,2013-10-19 02:13:00,
2013-10-18 21:18:00,41.2,35.2,29.82,North,359,0.0,1.0,79,0.00,,---,0.04,VWS V14.01,2013-10-19 02:18:00,
2013-10-18 21:23:00,41.2,35.5,29.82,NNW,339,0.0,2.0,80,0.00,,---,0.04,VWS V14.01,2013-10-19 02:23:00,
2013-10-18 21:28:00,41.1,35.7,29.82,NNW,342,0.0,2.0,81,0.00,,---,0.04,VWS V14.01,2013-10-19 02:28:00,
2013-10-18 21:33:00,41.1,36.0,29.82,NNW,342,0.0,2.0,82,0.00,,---,0.04,VWS V14.01,2013-10-19 02:33:00,
2013-10-18 21:38:00,41.1,36.3,29.82,NNW,340,0.0,2.0,83,0.00,,---,0.04,VWS V14.01,2013-10-19 02:38:00,
2013-10-18 21:43:00,41.1,36.6,29.82,NW,305,2.0,3.0,84,0.00,,---,0.04,VWS V14.01,2013-10-19 02:43:00,
2013-10-18 21:48:00,40.9,36.8,29.82,NW,304,0.0,3.0,85,0.00,,---,0.04,VWS V14.01,2013-10-19 02:48:00,
2013-10-18 21:53:00,40.8,37.2,29.82,NW,304,1.0,2.0,87,0.00,,---,0.04,VWS V14.01,2013-10-19 02:53:00,
2013-10-18 21:58:00,40.6,37.3,29.82,WNW,285,0.0,3.0,88,0.00,,---,0.04,VWS V14.01,2013-10-19 02:58:00,
2013-10-18 22:03:00,40.5,37.5,29.82,West,278,1.0,6.0,89,0.00,,---,0.04,VWS V14.01,2013-10-19 03:03:00,
2013-10-18 22:08:00,40.5,37.5,29.82,WSW,251,3.0,6.0,89,0.00,,---,0.04,VWS V14.01,2013-10-19 03:08:00,
2013-10-18 22:13:00,40.5,37.8,29.82,West,281,6.0,11.0,90,0.00,,---,0.04,VWS V14.01,2013-10-19 03:13:00,
2013-10-18 22:18:00,40.5,37.8,29.81,West,268,1.0,11.0,90,0.00,,---,0.04,VWS V14.01,2013-10-19 03:18:00,
2013-10-18 22:23:00,40.3,37.6,29.81,West,261,2.0,7.0,90,0.00,,---,0.04,VWS V14.01,2013-10-19 03:23:00,
2013-10-18 22:28:00,40.1,37.4,29.81,West,261,1.0,8.0,90,0.00,,---,0.04,VWS V14.01,2013-10-19 03:28:00,
2013-10-18 22:33:00,39.9,37.2,29.81,West,272,3.0,6.0,90,0.00,,---,0.04,VWS V14.01,2013-10-19 03:33:00,
2013-10-18 22:38:00,39.8,37.4,29.81,West,274,4.0,6.0,91,0.00,,---,0.04,VWS V14.01,2013-10-19 03:38:00,
2013-10-18 22:43:00,39.8,37.4,29.81,West,263,3.0,6.0,91,0.00,,---,0.04,VWS V14.01,2013-10-19 03:43:00,
2013-10-18 22:48:00,39.6,37.5,29.80,WSW,239,2.0,6.0,92,0.00,,---,0.04,VWS V14.01,2013-10-19 03:48:00,
2013-10-18 22:53:00,39.6,37.5,29.80,WSW,246,2.0,5.0,92,0.00,,---,0.04,VWS V14.01,2013-10-19 03:53:00,
2013-10-18 22:58:00,39.5,37.4,29.80,WSW,250,2.0,6.0,92,0.00,,---,0.04,VWS V14.01,2013-10-19 03:58:00,
2013-10-18 23:01:00,39.3,37.2,29.79,WSW,243,1.0,4.0,92,0.00,,---,0.04,VWS V14.01,2013-10-19 04:01:00,
2013-10-18 23:06:00,38.9,36.8,29.79,WSW,251,0.0,5.0,92,0.00,,---,0.04,VWS V14.01,2013-10-19 04:06:00,
2013-10-18 23:11:00,38.6,36.5,29.79,WNW,282,0.0,1.0,92,0.00,,---,0.04,VWS V14.01,2013-10-19 04:11:00,
2013-10-18 23:16:00,38.3,36.5,29.79,WNW,289,2.0,5.0,93,0.00,,---,0.04,VWS V14.01,2013-10-19 04:16:00,
2013-10-18 23:21:00,38.3,36.5,29.79,WNW,292,1.0,3.0,93,0.00,,---,0.04,VWS V14.01,2013-10-19 04:21:00,
2013-10-18 23:26:00,38.2,36.4,29.79,NW,305,2.0,5.0,93,0.00,,---,0.04,VWS V14.01,2013-10-19 04:26:00,
2013-10-18 23:31:00,37.9,36.3,29.79,WNW,289,3.0,3.0,94,0.00,,---,0.04,VWS V14.01,2013-10-19 04:31:00,
2013-10-18 23:36:00,37.6,36.0,29.79,WNW,282,3.0,4.0,94,0.00,,---,0.04,VWS V14.01,2013-10-19 04:36:00,
2013-10-18 23:41:00,37.2,35.6,29.79,WNW,282,0.0,1.0,94,0.00,,---,0.04,VWS V14.01,2013-10-19 04:41:00,
2013-10-18 23:46:00,36.9,35.3,29.78,WNW,284,0.0,2.0,94,0.00,,---,0.04,VWS V14.01,2013-10-19 04:46:00,
2013-10-18 23:51:00,36.6,35.0,29.78,WNW,284,0.0,2.0,94,0.00,,---,0.04,VWS V14.01,2013-10-19 04:51:00,
2013-10-18 23:56:00,36.3,35.0,29.78,WNW,282,1.0,2.0,95,0.00,,---,0.04,VWS V14.01,2013-10-19 04:56:00,